カタログに戻る

OPS 5118

NAVSTAR 6

運用中ナビゲーションHEO
NORAD 11783·PAYLOAD·🇺🇸 United States

打ち上げ Apr 26, 1980 から Vandenberg Space Force Base

Loading…

次のパス (今後24時間)

TLE

最新Source: Space-Track

元期: Sep 13, 2026, 16:28 UTC

1 11783U 80032A   26256.68634765  .00000019  00000-0  00000-0 0  9999
2 11783  61.8103 245.4116 0554405  51.3159 124.0461  2.03456063343558

AllMySatでOPS 5118をリアルタイム追跡

Download on the App Store